Simultaneous Nadir Overpasses (SNOs) Predictions

Prediction of SNOs between AQUA and METOP-B Satellite Orbit:

Table of predicted SNOs for the next 14.0 days since TLE Epoch: 7/31/2021
Index Date (AQUA) Time (AQUA) Lat,Lon (AQUA) SZA (AQUA ) Date (METOP-B) Time (METOP-B) Lat,Lon (METOP-B) SZA (METOP-B ) Distance(km) Time Diff (sec)
1 08/01/2021 07:10:09 73.70, 66.94 55.82 08/01/2021 07:09:07 73.71, 66.84 55.85 3.51 62
2 08/01/2021 07:59:36 -73.79,-125.61 124.08 08/01/2021 07:59:47 -73.79,-125.65 124.08 0.96 11
3 08/01/2021 08:49:10 74.11, 41.30 56.28 08/01/2021 08:50:20 74.14, 42.54 56.25 37.72 70
4 08/04/2021 02:44:24 73.73, 133.30 56.58 08/04/2021 02:43:29 73.71, 133.25 56.57 3.14 55
5 08/04/2021 03:33:51 -73.82, -59.25 123.32 08/04/2021 03:34:09 -73.79, -59.24 123.35 3.61 18
6 08/04/2021 04:23:30 74.40, 107.05 57.33 08/04/2021 04:24:36 74.43, 109.69 57.25 78.97 66
7 08/06/2021 22:18:39 73.73,-160.25 57.34 08/06/2021 22:17:51 73.75,-160.24 57.38 3.09 48
8 08/06/2021 23:08:06 -73.81, 7.22 122.56 08/06/2021 23:08:32 -73.78, 7.16 122.59 3.22 26
9 08/09/2021 17:52:54 73.73, -93.81 58.14 08/09/2021 17:52:14 73.75, -93.85 58.17 2.37 40
10 08/09/2021 18:42:21 -73.80, 73.66 121.77 08/09/2021 18:42:54 -73.83, 73.67 121.75 2.69 33
11 08/12/2021 13:27:09 73.74, -27.40 58.99 08/12/2021 13:26:37 73.74, -27.46 59.00 1.89 32
12 08/12/2021 14:16:35 -73.81, 140.09 120.93 08/12/2021 14:17:16 -73.82, 140.07 120.92 1.65 41



Historial Predications of SNOs between AQUA and METOP-B
